Flag for Germany Weather past 2 weeks in Goch, North Rhine-Westphalia, Germany

Now
46 °F

Passing clouds.


Feels Like: 38 °F
Forecast: 41 / 51 °F
Wind: 24 mph from Northwest

Location: Niederrhein

Current Time: Mar 30, 2015 at 3:00:12 PM

Latest Report: Mar 30, 2015 at 2:20 PM


Visibility: N/A

Pressure: 29.74 "Hg

Humidity: 53%

Dew point: 30 °F

Location of GochLocation

Historic Weather in Goch — Graph

°F

Goch temperature yesterday

Maximum temperature yesterday: 52 °F (at 5:20 AM)
Minimum temperature yesterday: 46 °F (at 9:50 PM)
Average temperature yesterday: 50 °F

Past Weeks' High & Low Weather Summary

 TemperatureHumidityPressure
High63 °F (Mar 17, 2:20 PM)100% (Mar 18, 6:50 AM)30.39 "Hg (Mar 18, 6:50 AM)
Low30 °F (Mar 23, 5:50 AM)42% (Mar 17, 2:20 PM)29.21 "Hg (Mar 29, 7:20 PM)
Average45 °F79%30.03 "Hg
* Reported Mar 15 12:20 PM — Mar 30 1:50 PM, Goch, Weather by CustomWeather, © 2015

Note: Actual official high and low records may vary slightly from our data, if they occured in-between our weather recording intervals... More about our weather records

Advertising

Goch weather history for previous 24 hours

 ConditionsComfort  
Time TempWeatherWind HumidityBarometerVisibility
1:50 PM
Mon, Mar 30
46 °FPartly sunny.25 mph62%29.71 "HgN/A
1:20 PM46 °FPartly sunny.23 mph66%29.71 "HgN/A
12:50 PM46 °FScattered showers. Broken clouds.23 mph66%29.68 "HgN/A
12:20 PM46 °FScattered showers. Partly sunny.20 mph71%29.65 "HgN/A
11:50 AM46 °FSprinkles. Partly sunny.17 mph71%29.65 "HgN/A
11:20 AM46 °FPartly sunny.20 mph62%29.65 "HgN/A
10:50 AM46 °FPartly sunny.21 mph62%29.62 "HgN/A
9:50 AM45 °FScattered clouds.15 mph66%29.59 "HgN/A
9:20 AM45 °FPartly sunny.20 mph66%29.59 "HgN/A
8:50 AM45 °FPassing clouds.16 mph71%29.56 "HgN/A
8:20 AM45 °FPassing clouds.16 mph71%29.53 "HgN/A
7:50 AM45 °FPassing clouds.16 mph76%29.53 "HgN/A
7:20 AM43 °FPassing clouds.16 mph76%29.50 "HgN/A
6:50 AM43 °FClear.17 mph76%29.50 "Hg10 mi
6:20 AM45 °FClear.16 mph76%29.47 "Hg10 mi
5:50 AM43 °FClear.15 mph81%29.47 "Hg10 mi
5:20 AM43 °FClear.14 mph81%29.47 "Hg10 mi
4:50 AM43 °FClear.14 mph81%29.45 "Hg10 mi
11:50 PM
Sun, Mar 29
46 °FClear.15 mph82%29.39 "Hg10 mi
11:20 PM46 °FPassing clouds.17 mph82%29.39 "HgN/A
10:50 PM46 °FPassing clouds.20 mph82%29.39 "HgN/A
10:20 PM46 °FPassing clouds.21 mph82%29.39 "HgN/A
9:50 PM46 °FScattered showers. Scattered clouds.25 mph82%29.36 "Hg6 mi
9:20 PM48 °FScattered showers. Scattered clouds.18 mph76%29.33 "HgN/A
8:50 PM50 °FScattered showers. Scattered clouds.23 mph76%29.30 "HgN/A
8:20 PM50 °FThundershowers. Scattered clouds.26 mph82%29.30 "HgN/A
7:50 PM50 °FThundershowers. Partly sunny.28 mph88%29.27 "Hg4 mi
7:20 PM52 °FThunderstorms. Partly sunny.24 mph88%29.21 "Hg5 mi
6:50 PM52 °FLight rain. Partly sunny.25 mph94%29.24 "Hg5 mi
6:20 PM52 °FLight rain. Partly sunny.26 mph94%29.24 "Hg4 mi
5:50 PM52 °FLight rain. Partly sunny.24 mph94%29.27 "Hg4 mi
5:20 PM52 °FLight rain. Partly sunny.23 mph94%29.27 "HgN/A
4:50 PM52 °FLight rain. Partly sunny.20 mph94%29.30 "HgN/A
4:20 PM52 °FLight rain. Partly sunny.20 mph94%29.33 "Hg6 mi
3:50 PM52 °FLight rain. Partly sunny.18 mph94%29.36 "Hg6 mi
3:20 PM52 °FLight rain. Partly sunny.15 mph94%29.36 "HgN/A
Weather by CustomWeather, © 2015

See weather overviewHow to use our weather pages